Flag for Canada Weather past 2 weeks in Rainy River, Ontario, Canada

Now
71 °F

Sunny.


Feels Like: 77 °F
Forecast: 50 / 71 °F
Wind: 3 mph from Southwest

Location: Baudette International Airport

Current Time: May 24, 2015 at 8:43:08 PM

Latest Report: May 24, 2015 at 7:53 PM


Visibility: 10 mi

Pressure: 29.91 "Hg

Humidity: 42%

Dew point: 47 °F

Location of Rainy RiverLocation

Historic Weather in Rainy River — Graph

°F

Rainy River temperature yesterday

Maximum temperature yesterday: 78 °F (at 2:53 PM)
Minimum temperature yesterday: 50 °F (at 5:53 AM)
Average temperature yesterday: 66 °F

Past Weeks' High & Low Weather Summary

 TemperatureHumidityPressure
High78 °F (May 23, 2:53 PM)100% (May 15, 6:53 AM)30.42 "Hg (May 15, 6:53 AM)
Low29 °F (May 19, 5:53 AM)20% (May 23, 6:53 PM)29.48 "Hg (May 17, 4:53 PM)
Average49 °F69%30.08 "Hg
* Reported May 9 6:53 PM — May 24 6:53 PM, Rainy River, Weather by CustomWeather, © 2015

Note: Actual official high and low records may vary slightly from our data, if they occured in-between our weather recording intervals... More about our weather records

Advertising

Rainy River weather history for previous 24 hours

 ConditionsComfort  
Time TempWeatherWind HumidityBarometerVisibility
6:53 PM
Sun, May 24
73 °FSunny.3 mph41%29.93 "Hg10 mi
5:53 PM74 °FSunny.7 mph37%29.93 "Hg10 mi
4:53 PM76 °FSunny.5 mph32%29.95 "Hg10 mi
3:53 PM77 °FSunny.No wind28%29.96 "Hg10 mi
2:53 PM77 °FSunny.3 mph29%29.98 "Hg10 mi
1:53 PM77 °FSunny.No wind26%30.00 "Hg10 mi
12:53 PM76 °FSunny.5 mph27%30.02 "Hg10 mi
11:53 AM75 °FSunny.3 mph33%30.04 "Hg10 mi
10:53 AM73 °FSunny.5 mph37%30.06 "Hg10 mi
9:53 AM69 °FSunny.5 mph44%30.07 "Hg10 mi
8:53 AM65 °FSunny.5 mph52%30.07 "Hg10 mi
7:53 AM58 °FSunny.No wind67%30.08 "Hg10 mi
6:53 AM50 °FSunny.3 mph86%30.09 "Hg10 mi
5:53 AM49 °FClear.No wind77%30.11 "Hg10 mi
4:53 AM49 °FClear.3 mph80%30.11 "Hg10 mi
3:53 AM50 °FClear.5 mph77%30.11 "Hg10 mi
2:53 AM51 °FClear.No wind71%30.10 "Hg10 mi
1:53 AM52 °FClear.6 mph72%30.11 "Hg10 mi
12:53 AM54 °FClear.7 mph64%30.10 "Hg10 mi
11:53 PM
Sat, May 23
55 °FClear.5 mph64%30.10 "Hg10 mi
10:53 PM58 °FClear.5 mph62%30.09 "Hg10 mi
9:53 PM62 °FSunny.5 mph52%30.09 "Hg10 mi
8:53 PM68 °FSunny.3 mph40%30.08 "Hg10 mi
Weather by CustomWeather, © 2015

See weather overviewHow to use our weather pages